EA5AER-5 Weather Reports


Display with metric or nautical units.
time (UTC)temp
F
wind
direction
speed
MPH
gust
MPH
rain 1hr
in
rain 24hr
in
rain mn
in
humidity
%
barometer
mb
20260507131842 67 22 5.0 12.0 0.00 0.00 0.00 74 1009.9
20260507125705 67 22 5.0 12.0 0.00 0.00 0.00 74 1009.9
20260507123619 67 22 5.0 12.0 0.00 0.00 0.00 74 1009.9
20260507121629 67 22 5.0 12.0 0.00 0.00 0.00 74 1009.9
20260507115803 67 22 5.0 12.0 0.00 0.00 0.00 74 1009.9
20260507113740 67 41 5.0 8.0 0.00 0.00 0.00 73 1010.2
20260507111735 67 52 4.0 8.0 0.00 0.00 0.00 74 1010.2
20260507105754 67 40 6.0 8.0 0.00 0.00 0.00 75 1010.3
20260507103913 67 40 6.0 8.0 0.00 0.00 0.00 75 1010.3
20260507101913 67 40 6.0 8.0 0.00 0.00 0.00 75 1010.3
20260507100037 67 33 4.0 9.0 0.00 0.00 0.00 73 1010.5
20260507093829 67 31 2.0 7.0 0.00 0.00 0.00 76 1010.6
20260507091627 66 11 5.0 7.0 0.00 0.00 0.00 76 1010.5
20260507085533 66 22 2.0 8.0 0.00 0.00 0.00 75 1010.6
20260507083543 65 334 4.0 8.0 0.00 0.00 0.00 75 1010.2
20260507081534 64 312 4.0 7.0 0.00 0.00 0.00 75 1010.2
20260507075609 64 312 4.0 7.0 0.00 0.00 0.00 75 1010.2
20260507073639 63 267 4.0 6.0 0.00 0.00 0.00 75 1010.1
20260507071527 63 267 4.0 6.0 0.00 0.00 0.00 75 1010.1
20260507065524 61 208 5.0 6.0 0.00 0.00 0.00 79 1010.2
20260507063533 61 208 5.0 6.0 0.00 0.00 0.00 79 1010.2
20260507061709 60 263 4.0 6.0 0.00 0.00 0.00 78 1010.0
20260507055738 60 230 2.0 3.0 0.00 0.00 0.00 79 1009.5
20260507053619 60 230 2.0 3.0 0.00 0.00 0.00 79 1009.5
20260507051529 60 230 2.0 3.0 0.00 0.00 0.00 79 1009.5
20260507045436 60 242 3.0 5.0 0.00 0.00 0.00 80 1009.5
20260507043404 60 242 3.0 5.0 0.00 0.00 0.00 80 1009.5
20260507041227 61 220 1.0 3.0 0.00 0.00 0.00 78 1009.5
20260507035147 61 220 1.0 3.0 0.00 0.00 0.00 78 1009.5
20260507033204 61 216 1.0 2.0 0.00 0.00 0.00 78 1009.5
20260507031159 60 215 2.0 3.0 0.00 0.00 0.00 79 1009.7
20260507025311 59 247 2.0 3.0 0.00 0.00 0.00 80 1009.7
20260507023419 59 247 2.0 3.0 0.00 0.00 0.00 80 1009.7
20260507021259 59 261 3.0 5.0 0.00 0.00 0.00 80 1009.7
20260507015246 60 258 2.0 3.0 0.00 0.00 0.00 81 1009.7
20260507013242 60 258 2.0 3.0 0.00 0.00 0.00 81 1009.7
20260507011244 60 258 2.0 3.0 0.00 0.00 0.00 81 1009.7
20260507005228 60 258 2.0 3.0 0.00 0.00 0.00 81 1009.7
20260507003048 60 232 1.0 2.0 0.00 0.00 0.00 79 1009.9
20260507001114 60 223 1.0 3.0 0.00 0.00 0.00 78 1010.3
20260506235124 60 223 1.0 3.0 0.00 0.00 0.00 78 1010.3
20260506233253 60 244 2.0 3.0 0.00 0.00 0.00 77 1010.3
20260506231407 60 261 3.0 5.0 0.00 0.00 0.00 77 1010.4
20260506225453 60 278 3.0 5.0 0.00 0.00 0.00 77 1010.5
20260506223607 60 267 3.0 3.0 0.00 0.00 0.00 77 1010.6
20260506221454 60 259 5.0 7.0 0.00 0.00 0.00 78 1010.6
20260506215336 61 253 3.0 5.0 0.00 0.00 0.00 77 1010.4
20260506213323 61 253 3.0 5.0 0.00 0.00 0.00 77 1010.4
20260506211235 63 141 1.0 2.0 0.00 0.00 0.00 75 1009.9
20260506205026 63 141 1.0 2.0 0.00 0.00 0.00 75 1009.9
20260506202853 63 140 5.0 6.0 0.00 0.00 0.00 73 1009.8
20260506201029 63 140 3.0 5.0 0.00 0.00 0.00 72 1009.8
20260506195222 64 131 4.0 6.0 0.00 0.00 0.00 71 1009.3
20260506193122 65 117 5.0 8.0 0.00 0.00 0.00 65 1009.1
20260506191213 65 117 5.0 8.0 0.00 0.00 0.00 65 1009.1
20260506185214 65 117 5.0 8.0 0.00 0.00 0.00 65 1009.1
20260506183152 65 117 5.0 8.0 0.00 0.00 0.00 65 1009.1
20260506181112 65 113 5.0 7.0 0.00 0.00 0.00 66 1008.9
20260506175034 65 125 3.0 8.0 0.00 0.03 0.00 66 1008.8
20260506172940 66 84 6.0 12.0 0.00 0.03 0.00 66 1008.9
20260506170859 65 85 6.0 12.0 0.00 0.03 0.00 66 1008.9
20260506164647 65 91 5.0 12.0 0.00 0.03 0.00 66 1009.8
20260506162532 65 91 5.0 12.0 0.00 0.03 0.00 66 1009.8
20260506160524 65 91 5.0 12.0 0.00 0.03 0.00 66 1009.8
20260506154430 65 91 5.0 12.0 0.00 0.03 0.00 66 1009.8
20260506152431 65 91 5.0 12.0 0.00 0.03 0.00 66 1009.8
20260506150302 65 91 5.0 12.0 0.00 0.03 0.00 66 1009.8
20260506144122 65 91 5.0 12.0 0.00 0.03 0.00 66 1009.8
20260506142140 65 91 5.0 12.0 0.00 0.03 0.00 66 1009.8
20260506140049 64 71 8.0 13.0 0.00 0.04 0.00 68 1010.0
20260506134149 64 71 8.0 13.0 0.00 0.04 0.00 68 1010.0